TimeEST,TemperatureF,Dew PointF,Humidity,Sea Level PressureIn,VisibilityMPH,Wind Direction,Wind SpeedMPH,Gust SpeedMPH,PrecipitationIn,Events,Conditions,WindDirDegrees,DateUTC
12:53 AM,46.0,28.0,50,29.78,10.0,West,8.1,25.3,N/A,,Mostly Cloudy,270,2013-11-19 05:53:00
1:53 AM,44.1,28.0,53,29.81,10.0,WNW,12.7,20.7,N/A,,Overcast,300,2013-11-19 06:53:00
2:53 AM,43.0,23.0,45,29.83,10.0,WNW,15.0,26.5,N/A,,Overcast,300,2013-11-19 07:53:00
3:53 AM,42.1,19.9,41,29.86,10.0,WNW,17.3,33.4,N/A,,Overcast,300,2013-11-19 08:53:00
4:53 AM,41.0,21.0,45,29.88,10.0,West,11.5,-,N/A,,Overcast,270,2013-11-19 09:53:00
5:53 AM,42.1,21.9,45,29.90,10.0,West,8.1,-,N/A,,Overcast,280,2013-11-19 10:53:00
6:53 AM,41.0,23.0,49,29.94,10.0,WNW,10.4,-,N/A,,Scattered Clouds,290,2013-11-19 11:53:00
7:53 AM,42.1,25.0,51,29.96,10.0,WNW,11.5,-,N/A,,Clear,290,2013-11-19 12:53:00
8:53 AM,44.1,25.0,47,29.98,10.0,West,12.7,-,N/A,,Clear,280,2013-11-19 13:53:00
9:53 AM,46.9,24.1,41,30.00,10.0,NW,11.5,21.9,N/A,,Mostly Cloudy,320,2013-11-19 14:53:00
10:53 AM,46.0,25.0,44,30.03,10.0,NNW,17.3,-,N/A,,Partly Cloudy,330,2013-11-19 15:53:00
11:53 AM,44.1,25.0,47,30.04,10.0,NNW,11.5,23.0,N/A,,Partly Cloudy,340,2013-11-19 16:53:00
12:53 PM,46.0,24.1,42,30.06,10.0,NW,13.8,21.9,N/A,,Clear,310,2013-11-19 17:53:00
1:53 PM,45.0,24.1,44,30.08,10.0,North,13.8,-,N/A,,Scattered Clouds,350,2013-11-19 18:53:00
2:53 PM,43.0,23.0,45,30.11,10.0,NW,10.4,-,N/A,,Overcast,320,2013-11-19 19:53:00
3:53 PM,42.1,21.9,45,30.14,10.0,NW,8.1,-,N/A,,Mostly Cloudy,320,2013-11-19 20:53:00
4:53 PM,39.9,21.0,47,30.17,10.0,NW,9.2,-,N/A,,Partly Cloudy,320,2013-11-19 21:53:00
5:53 PM,37.9,21.0,51,30.21,10.0,Calm,Calm,-,N/A,,Clear,0,2013-11-19 22:53:00
6:53 PM,36.0,21.0,55,30.25,10.0,NNE,5.8,-,N/A,,Clear,30,2013-11-19 23:53:00
7:53 PM,34.0,21.0,59,30.28,10.0,ENE,3.5,-,N/A,,Clear,70,2013-11-20 00:53:00
8:53 PM,30.9,21.0,67,30.30,10.0,North,5.8,-,N/A,,Clear,350,2013-11-20 01:53:00
9:53 PM,30.9,19.9,64,30.32,10.0,NNE,4.6,-,N/A,,Clear,20,2013-11-20 02:53:00
10:53 PM,30.9,19.9,64,30.35,10.0,NNW,4.6,-,N/A,,Clear,340,2013-11-20 03:53:00
11:53 PM,28.9,19.9,69,30.37,10.0,North,3.5,-,N/A,,Clear,360,2013-11-20 04:53:00